Home > Weather > Ciudad del Este > Past weeks

Flag for Paraguay Past Weather in Ciudad del Este, Paraguay — Yesterday and Last 2 Weeks

Now
59 °F

Partly cloudy.


Feels Like: 59 °F
Forecast: 50 / 68 °F
Wind: 2 mph from Southwest

Location: Foz Do Iguacu Aeroporto

Current Time: May 31, 2016 at 2:00:27 AM

Latest Report: May 31, 2016 at 1:00 AM


Visibility: 5 mi

Pressure: 29.98 "Hg

Humidity: 94%

Dew Point: 57 °F

Location of Ciudad del EsteLocation

Past Weather in Ciudad del Este — Graph

°F

Ciudad del Este Temperature Yesterday

Maximum temperature yesterday: 63 °F (at 10:00 AM)
Minimum temperature yesterday: 57 °F (at 6:00 AM)
Average temperature yesterday: 60 °F

High & Low Weather Summary for the Past Weeks

 TemperatureHumidityPressure
High72 °F (May 19, 1:00 PM)100% (May 16, 5:00 AM)30.36 "Hg (May 16, 5:00 AM)
Low41 °F (May 28, 1:00 AM)52% (May 18, 12:00 PM)29.89 "Hg (May 30, 4:00 PM)
Average59 °F88%30.10 "Hg
* Reported May 16 12:00 AM — May 31 12:00 AM, Ciudad del Este, Weather by CustomWeather, © 2016

Note: Actual official high and low records may vary slightly from our data, if they occured in-between our weather recording intervals... More about our weather records

Advertising

Ciudad del Este Weather History for the Previous 24 Hours

Scroll right to see more
 ConditionsComfort  
Time TempWeatherWind HumidityBarometerVisibility
12:00 AM
Tue, May 31
41 °FFog.3 mph100%29.98 "Hg1 mi
11:00 PM
Mon, May 30
59 °FFog.2 mph94%29.98 "Hg3 mi
10:00 PM59 °FPassing clouds.3 mph94%29.98 "HgN/A
9:00 PM59 °FPassing clouds.2 mph94%29.95 "HgN/A
8:00 PM59 °FLow clouds.2 mph94%29.95 "HgN/A
7:00 PM59 °FMostly cloudy.2 mph94%29.95 "HgN/A
6:00 PM59 °FMostly cloudy.2 mph94%29.92 "HgN/A
5:00 PM59 °FMostly cloudy.2 mph100%29.92 "HgN/A
4:00 PM61 °FMostly cloudy.No wind88%29.89 "Hg5 mi
3:00 PM61 °FLight rain. Fog.2 mph88%29.92 "Hg2 mi
2:00 PM61 °FLight rain. Fog.2 mph88%29.92 "Hg1 mi
1:00 PM63 °FScattered showers. More clouds than sun.2 mph88%29.92 "HgN/A
12:00 PM63 °FMostly cloudy.2 mph83%29.95 "HgN/A
11:00 AM63 °FPartly sunny.2 mph83%29.95 "HgN/A
10:00 AM63 °FPartly sunny.3 mph83%29.98 "HgN/A
9:00 AM61 °FPartly sunny.5 mph83%29.98 "HgN/A
8:00 AM59 °FBroken clouds.3 mph94%29.98 "HgN/A
7:00 AM57 °FPartly sunny.No wind100%29.98 "HgN/A
6:00 AM57 °FBroken clouds.3 mph100%29.95 "HgN/A
5:00 AM59 °FMostly cloudy.2 mph94%29.95 "HgN/A
4:00 AM59 °FMostly cloudy.2 mph94%29.95 "HgN/A
3:00 AM59 °FMostly cloudy.3 mph94%29.95 "HgN/A
2:00 AM59 °FMostly cloudy.3 mph94%29.95 "HgN/A
Weather by CustomWeather, © 2016

See weather overviewHow to use our weather pages